KRZR Airport (Cleveland Rgnl Jetport) Information

FAA: RZR - ICAO: KRZR

KRZR Airport Location

State Tennessee
County Bradley
City Cleveland
KRZR Airport is 3 miles northeast of Cleveland, TN.
Latitude 35-12-44.4110N
Longitude 084-47-57.1160W
Elevation 865ft

KRZR Airport METARs

METAR KRZR 071955Z AUTO 00000KT 4SM BR BKN005 OVC009 18/18 A3020 RMK A01 P0016
Altimeter 30.20"
Temperature 18.0°C (64.4°F)
Wind 0° at 0KT
Clouds broken at 500ft overcast at 900ft
Visibility 4.0mi
Time observed: 2022-12-07T19:55:00Z

KRZR Airport Details

Status Operational
Activation January 2013
Ownership Public
Usage Public
Chart ATLANTA
ATC on-site No
Beacon schedule sunset-sunrise
Beacon color clear green

KRZR Airport Contacts

Owner CLEVELAND MUNICIPAL ARPT AUTHORITY
Owner address 251 DRY VALLEY ROAD NE, CLEVELAND, TN 37312
Owner phone (423) 472-4343
Manager DAVID SMITH
Manager address 1601 WELCH STREET, BROWNSVILLE, TN 38012
Manager phone 731-772-4979

KRZR Airport (Cleveland Rgnl Jetport) Radio Frequencies

KRZR (Airport) Radio Frequencies

UNICOM 122.7
Common traffic advisory frequency (CTAF) 122.7